Lytton, British Columbia

6:12 AM PDT on June 27, 2017 (GMT -0700)
Lytton

Weather History for CWLY - October, 2013

Change the Weather History Date:

Thursday, October 31, 2013

  Actual Average Record
Temperature  
Mean Temperature 54 °F -  
Max Temperature 59 °F 41 °F 59 °F (2013)
Min Temperature 48 °F 31 °F 21 °F (2002)
Degree Days  
Heating Degree Days 12    
Growing Degree Days 4 (Base 50)    
Moisture  
Dew Point 40 °F    
Average Humidity 64    
Maximum Humidity 76    
Minimum Humidity 51    
Precipitation  
Precipitation 0.00 in 0.09 in - ()
Sea Level Pressure  
Sea Level Pressure 30.03 in    
Wind  
Wind Speed 17 mph ()    
Max Wind Speed 26 mph    
Max Gust Speed 36 mph    
Visibility 9.0 miles    
Events      
Averages and records for this station are not official NWS values.
T = Trace of Precipitation, MM = Missing Value Source: Averaged Metar Reports

Daily Weather History Graph

Daily Weather History Graph

Search for Another Location

Airport or City:

Trip Planner

Search our weather history database for the weather conditions in past years. The results will help you decide how hot, cold, wet, or windy it might be!

Date:

Astronomy

Oct. 31, 2013 Rise Set
Actual Time 7:55 AM PDT 5:43 PM PDT
Civil Twilight 7:21 AM PDT 6:17 PM PDT
Nautical Twilight 6:43 AM PDT 6:55 PM PDT
Astronomical Twilight 6:05 AM PDT 7:33 PM PDT
Moon 4:33 AM PDT (10/31) 4:18 PM PDT (10/31)
Length of Visible Light 10h 56m
Length of Day
9h 48m
Waning Crescent, 9% of the Moon is Illuminated
Oct 31
Waning Crescent
Nov 3
New
Nov 9
First Quarter
Nov 17
Full
Nov 25
Last Quarter

Hourly Weather History & Observations

Time (PDT) Temp. Dew Point Humidity Pressure Visibility Wind Dir Wind Speed Gust Speed Precip Events Conditions
12:00 AM 51.8 °F 35.6 °F 54% 29.94 in 9.0 mi SSW 21.9 mph 32.2 mph N/A   Overcast
1:00 AM 50.0 °F 37.4 °F 62% 29.96 in 9.0 mi South 18.4 mph 32.2 mph N/A   Overcast
2:00 AM 50.0 °F 39.2 °F 66% 29.98 in 9.0 mi SSW 18.4 mph 29.9 mph N/A   Overcast
3:00 AM 48.2 °F 39.2 °F 71% 29.97 in 9.0 mi South 24.2 mph 32.2 mph N/A   Mostly Cloudy
4:00 AM 50.0 °F 39.2 °F 66% 29.97 in 9.0 mi SSW 15.0 mph 31.1 mph N/A   Overcast
4:51 AM 50.0 °F 39.2 °F 66% 29.96 in 9.0 mi South 26.5 mph 32.2 mph N/A   Mostly Cloudy
5:00 AM 48.2 °F 41.0 °F 76% 29.97 in 9.0 mi South 17.3 mph 32.2 mph N/A   Scattered Clouds
6:00 AM 50.0 °F 41.0 °F 71% 29.97 in 9.0 mi South 20.7 mph 28.8 mph N/A   Partly Cloudy
7:00 AM 50.0 °F 39.2 °F 66% 29.99 in 9.0 mi SSW 16.1 mph 27.6 mph N/A   Partly Cloudy
8:00 AM 50.0 °F 41.0 °F 71% 30.00 in 9.0 mi South 18.4 mph 28.8 mph N/A   Partly Cloudy
9:00 AM 51.8 °F 41.0 °F 67% 30.02 in 9.0 mi SSW 15.0 mph 25.3 mph N/A   Scattered Clouds
10:00 AM 51.8 °F 41.0 °F 67% 30.02 in 9.0 mi South 20.7 mph 32.2 mph N/A   Partly Cloudy
11:00 AM 53.6 °F 41.0 °F 62% 30.04 in 9.0 mi SSW 18.4 mph 29.9 mph N/A   Clear
12:00 PM 55.4 °F 41.0 °F 58% 30.03 in 9.0 mi South 20.7 mph 33.4 mph N/A   Clear
1:00 PM 57.2 °F 41.0 °F 55% 30.03 in 9.0 mi South 23.0 mph 33.4 mph N/A   Clear
2:00 PM 59.0 °F 41.0 °F 51% 30.01 in 9.0 mi SSW 21.9 mph 35.7 mph N/A   Clear
3:00 PM 57.2 °F 41.0 °F 55% 30.02 in 9.0 mi SSW 15.0 mph 32.2 mph N/A   Clear
4:00 PM 55.4 °F 41.0 °F 58% 30.03 in 9.0 mi SSW 13.8 mph 28.8 mph N/A   Clear
5:00 PM 55.4 °F 41.0 °F 58% 30.04 in 9.0 mi SW 11.5 mph 31.1 mph N/A   Partly Cloudy
6:00 PM 53.6 °F 41.0 °F 62% 30.05 in 9.0 mi SSW 13.8 mph 26.5 mph N/A   Clear
7:00 PM 53.6 °F 41.0 °F 62% 30.08 in 9.0 mi SSW 15.0 mph 31.1 mph N/A   Clear
8:00 PM 51.8 °F 41.0 °F 67% 30.09 in 9.0 mi SSW 13.8 mph 29.9 mph N/A   Clear
8:22 PM 51.8 °F 41.0 °F 67% 30.10 in 9.0 mi SSW 25.3 mph 33.4 mph N/A   Clear
9:00 PM 51.8 °F 41.0 °F 67% 30.10 in 9.0 mi SSW 19.6 mph 31.1 mph N/A   Clear
10:00 PM 51.8 °F 41.0 °F 67% 30.13 in 9.0 mi South 17.3 mph 28.8 mph N/A   Clear
11:00 PM 50.0 °F 41.0 °F 71% 30.16 in 9.0 mi South 13.8 mph 21.9 mph N/A   Clear